Time,TemperatureF,DewpointF,PressureIn,WindDirection,WindDirectionDegrees,WindSpeedMPH,WindSpeedGustMPH,Humidity,HourlyPrecipIn,Conditions,Clouds,dailyrainin,SoftwareType,DateUTC
2013-10-04 00:29:00,73.0,69.0,29.89,NW,315,0.0,0.0,88,0.00,,,0.00,,2013-10-04 05:29:00,
2013-10-04 00:55:00,73.0,70.0,29.89,NW,315,0.0,0.0,89,0.00,,,0.00,,2013-10-04 05:55:00,
2013-10-04 01:26:00,72.0,69.0,29.89,NW,315,0.0,0.0,89,0.00,,,0.00,,2013-10-04 06:26:00,
2013-10-04 01:55:00,72.0,69.0,29.89,NW,314,0.0,0.0,89,0.00,,,0.00,,2013-10-04 06:55:00,
2013-10-04 02:16:00,72.0,69.0,29.90,NW,315,0.0,0.0,89,0.00,,,0.00,,2013-10-04 07:16:00,
2013-10-04 02:25:00,72.0,69.0,29.90,NW,315,0.0,0.0,89,0.00,,,0.00,,2013-10-04 07:25:00,
2013-10-04 02:54:00,71.0,68.0,29.90,NW,315,0.0,0.0,90,0.00,,,0.00,,2013-10-04 07:54:00,
2013-10-04 03:25:00,70.0,67.0,29.90,NW,315,0.0,0.0,90,0.00,,,0.00,,2013-10-04 08:25:00,
2013-10-04 03:55:00,69.0,66.0,29.90,NW,315,0.0,0.0,91,0.00,,,0.00,,2013-10-04 08:55:00,
2013-10-04 04:15:00,69.0,66.0,29.90,NW,315,0.0,0.0,91,0.00,,,0.00,,2013-10-04 09:15:00,
2013-10-04 04:25:00,69.0,67.0,29.90,NW,314,0.0,0.0,92,0.00,,,0.00,,2013-10-04 09:25:00,
2013-10-04 04:57:00,68.0,66.0,29.89,NW,314,0.0,0.0,92,0.00,,,0.00,,2013-10-04 09:57:00,
2013-10-04 05:19:00,68.0,66.0,29.90,NW,314,0.0,0.0,92,0.00,,,0.00,,2013-10-04 10:19:00,
2013-10-04 05:28:00,67.0,65.0,29.89,NW,315,0.0,0.0,92,0.00,,,0.00,,2013-10-04 10:28:00,
2013-10-04 05:57:00,67.0,65.0,29.90,NW,314,0.0,0.0,93,0.00,,,0.00,,2013-10-04 10:57:00,
2013-10-04 06:28:00,67.0,65.0,29.91,NW,315,0.0,0.0,93,0.00,,,0.00,,2013-10-04 11:28:00,
2013-10-04 06:57:00,67.0,65.0,29.91,NW,314,0.0,0.0,93,0.00,,,0.00,,2013-10-04 11:57:00,
2013-10-04 07:18:00,66.0,64.0,29.91,NW,314,0.0,0.0,94,0.00,,,0.00,,2013-10-04 12:18:00,
2013-10-04 07:28:00,66.0,64.0,29.91,NW,315,0.0,0.0,94,0.00,,,0.00,,2013-10-04 12:28:00,
2013-10-04 07:56:00,66.0,64.0,29.92,NW,315,0.0,0.0,94,0.00,,,0.00,,2013-10-04 12:56:00,
2013-10-04 08:18:00,66.0,64.0,29.92,NW,314,0.0,0.0,94,0.00,,,0.00,,2013-10-04 13:18:00,
2013-10-04 08:27:00,66.0,64.0,29.93,NW,314,0.0,0.0,94,0.00,,,0.00,,2013-10-04 13:27:00,
2013-10-04 08:47:00,66.0,65.0,29.93,NW,315,0.0,0.0,95,0.00,,,0.00,,2013-10-04 13:47:00,
2013-10-04 08:56:00,67.0,66.0,29.93,NW,314,0.0,0.0,95,0.00,,,0.00,,2013-10-04 13:56:00,
2013-10-04 09:18:00,68.0,67.0,29.93,NW,314,0.0,0.0,96,0.00,,,0.00,,2013-10-04 14:18:00,
2013-10-04 09:27:00,69.0,68.0,29.93,NW,315,0.0,0.0,97,0.00,,,0.00,,2013-10-04 14:27:00,
2013-10-04 09:47:00,70.0,69.0,29.93,NW,315,0.0,0.0,97,0.00,,,0.00,,2013-10-04 14:47:00,
2013-10-04 09:57:00,71.0,70.0,29.93,NW,314,0.0,0.0,97,0.00,,,0.00,,2013-10-04 14:57:00,
2013-10-04 10:18:00,72.0,71.0,29.93,NW,315,0.0,0.0,96,0.00,,,0.00,,2013-10-04 15:18:00,
2013-10-04 10:28:00,73.0,71.0,29.93,NW,315,0.0,0.0,95,0.00,,,0.00,,2013-10-04 15:28:00,
2013-10-04 10:48:00,73.0,71.0,29.93,NW,315,0.0,0.0,94,0.00,,,0.00,,2013-10-04 15:48:00,
2013-10-04 10:57:00,74.0,71.0,29.93,NW,315,0.0,0.0,91,0.00,,,0.00,,2013-10-04 15:57:00,
2013-10-04 11:19:00,75.0,72.0,29.93,NW,315,0.0,0.0,89,0.00,,,0.00,,2013-10-04 16:19:00,
2013-10-04 11:28:00,76.0,72.0,29.93,NW,314,0.0,0.0,87,0.00,,,0.00,,2013-10-04 16:28:00,
2013-10-04 11:48:00,77.0,71.0,29.93,NW,315,0.0,0.0,82,0.00,,,0.00,,2013-10-04 16:48:00,
2013-10-04 11:57:00,78.0,71.0,29.92,NW,315,0.0,0.0,80,0.00,,,0.00,,2013-10-04 16:57:00,
2013-10-04 12:28:00,80.0,71.0,29.92,NW,315,0.0,0.0,75,0.00,,,0.00,,2013-10-04 17:28:00,
2013-10-04 13:19:00,82.0,71.0,29.91,NW,315,0.0,0.0,69,0.00,,,0.00,,2013-10-04 18:19:00,
2013-10-04 13:29:00,83.0,71.0,29.91,NW,315,0.0,0.0,67,0.00,,,0.00,,2013-10-04 18:29:00,
2013-10-04 13:49:00,84.0,71.0,29.90,NW,315,0.0,0.0,65,0.00,,,0.00,,2013-10-04 18:49:00,
2013-10-04 13:55:00,84.0,70.0,29.89,NW,315,0.0,0.0,63,0.00,,,0.00,,2013-10-04 18:55:00,
2013-10-04 14:12:00,85.0,70.0,29.88,NW,315,0.0,0.0,62,0.00,,,0.00,,2013-10-04 19:12:00,
2013-10-04 14:22:00,85.0,69.0,29.88,NW,315,0.0,0.0,59,0.00,,,0.00,,2013-10-04 19:22:00,
2013-10-04 14:43:00,85.0,69.0,29.87,NW,315,0.0,0.0,59,0.00,,,0.00,,2013-10-04 19:43:00,
2013-10-04 14:52:00,85.0,69.0,29.87,NW,315,0.0,0.0,59,0.00,,,0.00,,2013-10-04 19:52:00,
2013-10-04 15:11:00,85.0,69.0,29.86,NW,315,0.0,0.0,59,0.00,,,0.00,,2013-10-04 20:11:00,
2013-10-04 15:22:00,85.0,69.0,29.86,NW,315,0.0,0.0,59,0.00,,,0.00,,2013-10-04 20:22:00,
2013-10-04 15:52:00,86.0,68.0,29.85,NW,315,0.0,0.0,56,0.00,,,0.00,,2013-10-04 20:52:00,
2013-10-04 16:12:00,87.0,69.0,29.85,NW,315,0.0,0.0,56,0.00,,,0.00,,2013-10-04 21:12:00,
2013-10-04 16:22:00,87.0,68.0,29.85,NW,315,0.0,0.0,54,0.00,,,0.00,,2013-10-04 21:22:00,
2013-10-04 16:54:00,87.0,68.0,29.85,NW,315,0.0,0.0,53,0.00,,,0.00,,2013-10-04 21:54:00,
2013-10-04 17:23:00,87.0,69.0,29.85,NW,315,0.0,0.0,56,0.00,,,0.00,,2013-10-04 22:23:00,
2013-10-04 17:52:00,86.0,70.0,29.85,NW,315,0.0,0.0,59,0.00,,,0.00,,2013-10-04 22:52:00,
2013-10-04 18:22:00,85.0,70.0,29.85,NW,315,0.0,0.0,62,0.00,,,0.00,,2013-10-04 23:22:00,
2013-10-04 18:53:00,83.0,70.0,29.86,NW,315,0.0,0.0,64,0.00,,,0.00,,2013-10-04 23:53:00,
2013-10-04 19:12:00,83.0,70.0,29.86,NW,315,0.0,0.0,66,0.00,,,0.00,,2013-10-05 00:12:00,
2013-10-04 19:22:00,82.0,71.0,29.86,NW,315,0.0,0.0,69,0.00,,,0.00,,2013-10-05 00:22:00,
2013-10-04 19:42:00,81.0,70.0,29.86,NW,315,0.0,0.0,70,0.00,,,0.00,,2013-10-05 00:42:00,
2013-10-04 19:52:00,81.0,71.0,29.86,NW,315,0.0,0.0,72,0.00,,,0.00,,2013-10-05 00:52:00,
2013-10-04 20:21:00,79.0,70.0,29.86,NW,315,0.0,0.0,75,0.00,,,0.00,,2013-10-05 01:21:00,
2013-10-04 20:43:00,79.0,71.0,29.87,NW,315,0.0,0.0,76,0.00,,,0.00,,2013-10-05 01:43:00,
2013-10-04 20:52:00,78.0,70.0,29.87,NW,315,0.0,0.0,77,0.00,,,0.00,,2013-10-05 01:52:00,
2013-10-04 21:11:00,78.0,71.0,29.87,NW,315,0.0,0.0,78,0.00,,,0.00,,2013-10-05 02:11:00,
2013-10-04 21:22:00,77.0,70.0,29.89,NW,315,0.0,0.0,79,0.00,,,0.00,,2013-10-05 02:22:00,
2013-10-04 21:42:00,77.0,70.0,29.90,NW,315,0.0,0.0,79,0.00,,,0.00,,2013-10-05 02:42:00,
2013-10-04 21:52:00,77.0,70.0,29.90,NW,315,0.0,0.0,80,0.00,,,0.00,,2013-10-05 02:52:00,
2013-10-04 22:23:00,76.0,70.0,29.91,NW,315,0.0,0.0,81,0.00,,,0.00,,2013-10-05 03:23:00,
2013-10-04 22:45:00,76.0,70.0,29.91,NW,315,0.0,0.0,82,0.00,,,0.00,,2013-10-05 03:45:00,
2013-10-04 22:55:00,76.0,70.0,29.91,NW,315,0.0,0.0,82,0.00,,,0.00,,2013-10-05 03:55:00,
2013-10-04 23:14:00,75.0,69.0,29.91,NW,315,0.0,0.0,83,0.00,,,0.00,,2013-10-05 04:14:00,
2013-10-04 23:24:00,75.0,70.0,29.91,NW,315,0.0,0.0,84,0.00,,,0.00,,2013-10-05 04:24:00,
2013-10-04 23:43:00,75.0,70.0,29.91,NW,315,0.0,0.0,84,0.00,,,0.00,,2013-10-05 04:43:00,
2013-10-04 23:53:00,75.0,70.0,29.91,NW,315,0.0,0.0,85,0.00,,,0.00,,2013-10-05 04:53:00,